owner,sensor,date,latitude,longitude,vertical_datum,direction_of_sea_water_velocity,sea_water_speed,upward_sea_water_velocity,qcFlag 
TABS,ioos:station:wmo:42049:1,2012-09-01T00:00:00Z,28.3507,-96.0058,2.0,26.77452506,8.568669675,-99999.0,'11133222,11111222,99999999' 
TABS,ioos:station:wmo:42049:1,2012-09-01T00:30:00Z,28.3507,-96.0058,2.0,37.43869448,4.030198506,-99999.0,'11133222,11111222,99999999' 
TABS,ioos:station:wmo:42049:1,2012-09-01T01:00:00Z,28.3507,-96.0058,2.0,43.05580089,7.294470509,-99999.0,'11133222,11111222,99999999' 
TABS,ioos:station:wmo:42049:1,2012-09-01T01:30:00Z,28.3507,-96.0058,2.0,13.83960477,6.354470867,-99999.0,'11133222,11111222,99999999' 
TABS,ioos:station:wmo:42049:1,2012-09-01T02:00:00Z,28.3507,-96.0058,2.0,20.96963258,6.650451113,-99999.0,'11133222,11111222,99999999' 
TABS,ioos:station:wmo:42049:1,2012-09-01T02:30:00Z,28.3507,-96.0058,2.0,15.38780703,6.067503605,-99999.0,'11133222,11111222,99999999' 
TABS,ioos:station:wmo:42049:1,2012-09-01T03:00:00Z,28.3507,-96.0058,2.0,16.79854296,6.643493057,-99999.0,'11133222,11111222,99999999' 
TABS,ioos:station:wmo:42049:1,2012-09-01T03:30:00Z,28.3507,-96.0058,2.0,6.831919732,8.238495008,-99999.0,'11133222,11111222,99999999' 
TABS,ioos:station:wmo:42049:1,2012-09-01T04:00:00Z,28.3507,-96.0058,2.0,17.41349141,9.222667727,-99999.0,'11133222,11111222,99999999' 
TABS,ioos:station:wmo:42049:1,2012-09-01T04:30:00Z,28.3507,-96.0058,2.0,356.6609765,12.36098702,-99999.0,'11111222,11111222,99999999' 
TABS,ioos:station:wmo:42049:1,2012-09-01T05:00:00Z,28.3507,-96.0058,2.0,354.2845612,11.24591037,-99999.0,'11111222,11111222,99999999' 
TABS,ioos:station:wmo:42049:1,2012-09-01T05:30:00Z,28.3507,-96.0058,2.0,0.55377435,10.35048308,-99999.0,'11111222,11111222,99999999' 
TABS,ioos:station:wmo:42049:1,2012-09-01T06:00:00Z,28.3507,-96.0058,2.0,12.55970216,8.093676544,-99999.0,'11133222,11111222,99999999' 
TABS,ioos:station:wmo:42049:1,2012-09-01T06:30:00Z,28.3507,-96.0058,2.0,354.0245617,9.89376066,-99999.0,'11133222,11111222,99999999' 
TABS,ioos:station:wmo:42049:1,2012-09-01T07:00:00Z,28.3507,-96.0058,2.0,357.0483533,10.87442872,-99999.0,'11111222,11111222,99999999' 
TABS,ioos:station:wmo:42049:1,2012-09-01T07:30:00Z,28.3507,-96.0058,2.0,6.830081826,10.59518759,-99999.0,'11111222,11111222,99999999' 
TABS,ioos:station:wmo:42049:1,2012-09-01T08:00:00Z,28.3507,-96.0058,2.0,356.3570908,8.026219534,-99999.0,'11133222,11111222,99999999' 
TABS,ioos:station:wmo:42049:1,2012-09-01T08:30:00Z,28.3507,-96.0058,2.0,16.1866602,6.528805404,-99999.0,'11133222,11111222,99999999' 
TABS,ioos:station:wmo:42049:1,2012-09-01T09:00:00Z,28.3507,-96.0058,2.0,13.52333949,6.500215381,-99999.0,'11133222,11111222,99999999' 
TABS,ioos:station:wmo:42049:1,2012-09-01T09:30:00Z,28.3507,-96.0058,2.0,27.14489959,5.304224731,-99999.0,'11133222,11111222,99999999' 
TABS,ioos:station:wmo:42049:1,2012-09-01T10:00:00Z,28.3507,-96.0058,2.0,343.6165176,5.566012936,-99999.0,'11133222,11111222,99999999' 
TABS,ioos:station:wmo:42049:1,2012-09-01T10:30:00Z,28.3507,-96.0058,2.0,358.0125989,7.78468368,-99999.0,'11133222,11111222,99999999' 
TABS,ioos:station:wmo:42049:1,2012-09-01T11:00:00Z,28.3507,-96.0058,2.0,356.936606,3.555080871,-99999.0,'11133222,11111222,99999999' 
TABS,ioos:station:wmo:42049:1,2012-09-01T11:30:00Z,28.3507,-96.0058,2.0,359.8098602,6.020033222,-99999.0,'11133222,11144222,99999999' 
TABS,ioos:station:wmo:42049:1,2012-09-01T12:00:00Z,28.3507,-96.0058,2.0,29.78825331,4.931622451,-99999.0,'11133222,11111222,99999999' 
TABS,ioos:station:wmo:42049:1,2012-09-01T12:30:00Z,28.3507,-96.0058,2.0,10.35350629,4.228853272,-99999.0,'11133222,11111222,99999999' 
TABS,ioos:station:wmo:42049:1,2012-09-01T13:00:00Z,28.3507,-96.0058,2.0,18.53328109,5.53715631,-99999.0,'11133222,11111222,99999999' 
TABS,ioos:station:wmo:42049:1,2012-09-01T13:30:00Z,28.3507,-96.0058,2.0,16.08104864,6.390031299,-99999.0,'11133222,11111222,99999999' 
TABS,ioos:station:wmo:42049:1,2012-09-01T14:00:00Z,28.3507,-96.0058,2.0,14.3370952,4.159543244,-99999.0,'11133222,11111222,99999999' 
TABS,ioos:station:wmo:42049:1,2012-09-01T14:30:00Z,28.3507,-96.0058,2.0,3.723527407,4.619751076,-99999.0,'11133222,11111222,99999999' 
TABS,ioos:station:wmo:42049:1,2012-09-01T15:00:00Z,28.3507,-96.0058,2.0,20.87480847,5.051574012,-99999.0,'11133222,11111222,99999999' 
TABS,ioos:station:wmo:42049:1,2012-09-01T15:30:00Z,28.3507,-96.0058,2.0,346.8215837,5.83363523,-99999.0,'11133222,11111222,99999999' 
TABS,ioos:station:wmo:42049:1,2012-09-01T16:00:00Z,28.3507,-96.0058,2.0,359.5081127,8.150300608,-99999.0,'11133222,11144222,99999999' 
TABS,ioos:station:wmo:42049:1,2012-09-01T16:30:00Z,28.3507,-96.0058,2.0,359.1365224,7.960904471,-99999.0,'11133222,11144222,99999999' 
TABS,ioos:station:wmo:42049:1,2012-09-01T17:00:00Z,28.3507,-96.0058,2.0,10.86010639,10.98676476,-99999.0,'11111222,11111222,99999999' 
TABS,ioos:station:wmo:42049:1,2012-09-01T17:30:00Z,28.3507,-96.0058,2.0,24.32754747,11.79754636,-99999.0,'11111222,11111222,99999999' 
TABS,ioos:station:wmo:42049:1,2012-09-01T18:00:00Z,28.3507,-96.0058,2.0,14.59030607,6.272264344,-99999.0,'11133222,11111222,99999999' 
TABS,ioos:station:wmo:42049:1,2012-09-01T18:30:00Z,28.3507,-96.0058,2.0,15.44298858,8.299644571,-99999.0,'11133222,11111222,99999999' 
TABS,ioos:station:wmo:42049:1,2012-09-01T19:00:00Z,28.3507,-96.0058,2.0,27.28813459,5.671119819,-99999.0,'11133222,11111222,99999999' 
TABS,ioos:station:wmo:42049:1,2012-09-01T19:30:00Z,28.3507,-96.0058,2.0,14.88782775,5.059851776,-99999.0,'11133222,11111222,99999999' 
TABS,ioos:station:wmo:42049:1,2012-09-01T20:00:00Z,28.3507,-96.0058,2.0,24.56390492,4.354044097,-99999.0,'11133222,11111222,99999999' 
TABS,ioos:station:wmo:42049:1,2012-09-01T20:30:00Z,28.3507,-96.0058,2.0,20.10035089,7.943834087,-99999.0,'11133222,11111222,99999999' 
TABS,ioos:station:wmo:42049:1,2012-09-01T21:00:00Z,28.3507,-96.0058,2.0,5.182297621,4.207196216,-99999.0,'11133222,11111222,99999999' 
TABS,ioos:station:wmo:42049:1,2012-09-01T21:30:00Z,28.3507,-96.0058,2.0,349.8702745,3.809383152,-99999.0,'11133222,11111222,99999999' 
TABS,ioos:station:wmo:42049:1,2012-09-01T22:00:00Z,28.3507,-96.0058,2.0,14.13773956,5.486164416,-99999.0,'11133222,11111222,99999999' 
TABS,ioos:station:wmo:42049:1,2012-09-01T22:30:00Z,28.3507,-96.0058,2.0,7.662143697,4.500177774,-99999.0,'11133222,11111222,99999999' 
TABS,ioos:station:wmo:42049:1,2012-09-01T23:00:00Z,28.3507,-96.0058,2.0,16.94848393,5.728813141,-99999.0,'11133222,11111222,99999999' 
TABS,ioos:station:wmo:42049:1,2012-09-01T23:30:00Z,28.3507,-96.0058,2.0,11.22264229,3.853686547,-99999.0,'11133222,11111222,99999999' 
TABS,ioos:station:wmo:42049:1,2012-09-02T00:00:00Z,28.3507,-96.0058,2.0,3.743190002,4.2891491,-99999.0,'11133222,11111222,99999999' 
TABS,ioos:station:wmo:42049:1,2012-09-02T00:30:00Z,28.3507,-96.0058,2.0,15.77024635,4.488964246,-99999.0,'11133222,11111222,99999999' 
TABS,ioos:station:wmo:42049:1,2012-09-02T01:00:00Z,28.3507,-96.0058,2.0,4.420757413,4.021964694,-99999.0,'11133222,11111222,99999999' 
TABS,ioos:station:wmo:42049:1,2012-09-02T01:30:00Z,28.3507,-96.0058,2.0,285.4616025,0.487647414,-99999.0,'11133222,11111222,99999999' 
TABS,ioos:station:wmo:42049:1,2012-09-02T02:00:00Z,28.3507,-96.0058,2.0,330.1412641,3.113278015,-99999.0,'11133222,11111222,99999999' 
TABS,ioos:station:wmo:42049:1,2012-09-02T02:30:00Z,28.3507,-96.0058,2.0,3.33112005,1.893198352,-99999.0,'11133222,11111222,99999999' 
TABS,ioos:station:wmo:42049:1,2012-09-02T03:00:00Z,28.3507,-96.0058,2.0,242.0827313,1.516476179,-99999.0,'11133222,11111222,99999999' 
TABS,ioos:station:wmo:42049:1,2012-09-02T03:30:00Z,28.3507,-96.0058,2.0,319.1405006,2.644409197,-99999.0,'11133222,11111222,99999999' 
TABS,ioos:station:wmo:42049:1,2012-09-02T04:00:00Z,28.3507,-96.0058,2.0,329.6822491,3.347864991,-99999.0,'11133222,11111222,99999999' 
TABS,ioos:station:wmo:42049:1,2012-09-02T04:30:00Z,28.3507,-96.0058,2.0,340.3841186,3.068061277,-99999.0,'11133222,11111222,99999999' 
TABS,ioos:station:wmo:42049:1,2012-09-02T05:00:00Z,28.3507,-96.0058,2.0,346.304366,2.449653037,-99999.0,'11133222,11111222,99999999' 
TABS,ioos:station:wmo:42049:1,2012-09-02T05:30:00Z,28.3507,-96.0058,2.0,321.5059271,1.62265215,-99999.0,'11133222,11111222,99999999' 
TABS,ioos:station:wmo:42049:1,2012-09-02T06:00:00Z,28.3507,-96.0058,2.0,357.9847731,3.412110784,-99999.0,'11133222,11111222,99999999' 
TABS,ioos:station:wmo:42049:1,2012-09-02T06:30:00Z,28.3507,-96.0058,2.0,7.891894433,2.03931361,-99999.0,'11133222,11111222,99999999' 
TABS,ioos:station:wmo:42049:1,2012-09-02T07:00:00Z,28.3507,-96.0058,2.0,14.99525452,2.318965287,-99999.0,'11133222,11111222,99999999' 
TABS,ioos:station:wmo:42049:1,2012-09-02T07:30:00Z,28.3507,-96.0058,2.0,11.95676674,2.606549443,-99999.0,'11133222,11111222,99999999' 
TABS,ioos:station:wmo:42049:1,2012-09-02T08:00:00Z,28.3507,-96.0058,2.0,355.3396759,3.692208011,-99999.0,'11133222,11111222,99999999' 
TABS,ioos:station:wmo:42049:1,2012-09-02T08:30:00Z,28.3507,-96.0058,2.0,356.1691681,4.490033407,-99999.0,'11133222,11111222,99999999' 
TABS,ioos:station:wmo:42049:1,2012-09-02T09:00:00Z,28.3507,-96.0058,2.0,50.40704196,1.725949014,-99999.0,'11133222,11111222,99999999' 
TABS,ioos:station:wmo:42049:1,2012-09-02T09:30:00Z,28.3507,-96.0058,2.0,0.000210459,4.05,-99999.0,'11133222,11111222,99999999' 
TABS,ioos:station:wmo:42049:1,2012-09-02T10:00:00Z,28.3507,-96.0058,2.0,34.91953081,3.878247027,-99999.0,'11133222,11111222,99999999' 
TABS,ioos:station:wmo:42049:1,2012-09-02T10:30:00Z,28.3507,-96.0058,2.0,49.1223934,3.147697571,-99999.0,'11133222,11111222,99999999' 
TABS,ioos:station:wmo:42049:1,2012-09-02T11:00:00Z,28.3507,-96.0058,2.0,15.0379912,2.081273649,-99999.0,'11133222,11111222,99999999' 
TABS,ioos:station:wmo:42049:1,2012-09-02T11:30:00Z,28.3507,-96.0058,2.0,352.0646786,3.331906361,-99999.0,'11133222,11111222,99999999' 
TABS,ioos:station:wmo:42049:1,2012-09-02T12:00:00Z,28.3507,-96.0058,2.0,358.1526045,0.930483745,-99999.0,'11133222,11111222,99999999' 
TABS,ioos:station:wmo:42049:1,2012-09-02T12:30:00Z,28.3507,-96.0058,2.0,21.11508385,3.719744615,-99999.0,'11133222,11111222,99999999' 
TABS,ioos:station:wmo:42049:1,2012-09-02T13:00:00Z,28.3507,-96.0058,2.0,22.38029318,2.39002092,-99999.0,'11133222,11111222,99999999' 
TABS,ioos:station:wmo:42049:1,2012-09-02T13:30:00Z,28.3507,-96.0058,2.0,12.38412029,4.289813516,-99999.0,'11133222,11111222,99999999' 
TABS,ioos:station:wmo:42049:1,2012-09-02T14:00:00Z,28.3507,-96.0058,2.0,18.8079676,2.915681738,-99999.0,'11133222,11111222,99999999' 
TABS,ioos:station:wmo:42049:1,2012-09-02T14:30:00Z,28.3507,-96.0058,2.0,47.97992875,5.168868348,-99999.0,'11133222,11111222,99999999' 
TABS,ioos:station:wmo:42049:1,2012-09-02T15:00:00Z,28.3507,-96.0058,2.0,53.99027544,4.79654042,-99999.0,'11133222,11111222,99999999' 
TABS,ioos:station:wmo:42049:1,2012-09-02T15:30:00Z,28.3507,-96.0058,2.0,33.5823487,5.893700026,-99999.0,'11133222,11111222,99999999' 
TABS,ioos:station:wmo:42049:1,2012-09-02T16:00:00Z,28.3507,-96.0058,2.0,33.02844628,10.80628058,-99999.0,'11111222,11111222,99999999' 
TABS,ioos:station:wmo:42049:1,2012-09-02T16:30:00Z,28.3507,-96.0058,2.0,48.13919554,12.1380229,-99999.0,'11111222,11111222,99999999' 
TABS,ioos:station:wmo:42049:1,2012-09-02T17:00:00Z,28.3507,-96.0058,2.0,61.27316763,12.56670203,-99999.0,'11111222,11111222,99999999' 
TABS,ioos:station:wmo:42049:1,2012-09-02T17:30:00Z,28.3507,-96.0058,2.0,44.19838857,13.13933027,-99999.0,'11111222,11111222,99999999' 
TABS,ioos:station:wmo:42049:1,2012-09-02T18:00:00Z,28.3507,-96.0058,2.0,53.08835167,16.43400438,-99999.0,'11111222,11111222,99999999' 
TABS,ioos:station:wmo:42049:1,2012-09-02T18:30:00Z,28.3507,-96.0058,2.0,54.42585074,18.22065861,-99999.0,'11111222,11111222,99999999' 
TABS,ioos:station:wmo:42049:1,2012-09-02T19:00:00Z,28.3507,-96.0058,2.0,48.4769195,18.53910731,-99999.0,'11111222,11111222,99999999' 
TABS,ioos:station:wmo:42049:1,2012-09-02T19:30:00Z,28.3507,-96.0058,2.0,54.76584893,21.51076475,-99999.0,'11111222,11111222,99999999' 
TABS,ioos:station:wmo:42049:1,2012-09-02T20:00:00Z,28.3507,-96.0058,2.0,57.46292552,19.98712085,-99999.0,'11111222,11111222,99999999' 
TABS,ioos:station:wmo:42049:1,2012-09-02T20:30:00Z,28.3507,-96.0058,2.0,58.20257006,20.74323504,-99999.0,'11111222,11111222,99999999' 
TABS,ioos:station:wmo:42049:1,2012-09-02T21:00:00Z,28.3507,-96.0058,2.0,65.8301686,18.51292792,-99999.0,'11111222,11111222,99999999' 
TABS,ioos:station:wmo:42049:1,2012-09-02T21:30:00Z,28.3507,-96.0058,2.0,66.01802557,20.83896591,-99999.0,'11111222,11111222,99999999' 
TABS,ioos:station:wmo:42049:1,2012-09-02T22:00:00Z,28.3507,-96.0058,2.0,64.05942042,16.82517459,-99999.0,'11111222,11111222,99999999' 
TABS,ioos:station:wmo:42049:1,2012-09-02T22:30:00Z,28.3507,-96.0058,2.0,69.52776835,9.606747629,-99999.0,'11133222,11111222,99999999' 
TABS,ioos:station:wmo:42049:1,2012-09-02T23:00:00Z,28.3507,-96.0058,2.0,67.64647098,12.91013943,-99999.0,'11111222,11111222,99999999' 
TABS,ioos:station:wmo:42049:1,2012-09-02T23:30:00Z,28.3507,-96.0058,2.0,78.14504831,17.52376957,-99999.0,'11111222,11111222,99999999' 
TABS,ioos:station:wmo:42049:1,2012-09-03T00:00:00Z,28.3507,-96.0058,2.0,65.00833025,12.37906701,-99999.0,'11111222,11111222,99999999' 
TABS,ioos:station:wmo:42049:1,2012-09-03T00:30:00Z,28.3507,-96.0058,2.0,68.14773919,10.45093776,-99999.0,'11111222,11111222,99999999' 
TABS,ioos:station:wmo:42049:1,2012-09-03T01:00:00Z,28.3507,-96.0058,2.0,85.07088809,9.776154663,-99999.0,'11133222,11111222,99999999' 
TABS,ioos:station:wmo:42049:1,2012-09-03T01:30:00Z,28.3507,-96.0058,2.0,81.87797852,10.05081589,-99999.0,'11111222,11111222,99999999' 
TABS,ioos:station:wmo:42049:1,2012-09-03T02:00:00Z,28.3507,-96.0058,2.0,73.28354315,19.08660525,-99999.0,'11111222,11111222,99999999' 
TABS,ioos:station:wmo:42049:1,2012-09-03T02:30:00Z,28.3507,-96.0058,2.0,64.20197511,16.70492442,-99999.0,'11111222,11111222,99999999' 
TABS,ioos:station:wmo:42049:1,2012-09-03T03:00:00Z,28.3507,-96.0058,2.0,69.38437788,16.87032009,-99999.0,'11111222,11111222,99999999' 
TABS,ioos:station:wmo:42049:1,2012-09-03T03:30:00Z,28.3507,-96.0058,2.0,68.83683898,17.67186464,-99999.0,'11111222,11111222,99999999' 
TABS,ioos:station:wmo:42049:1,2012-09-03T04:00:00Z,28.3507,-96.0058,2.0,68.35561547,10.84464845,-99999.0,'11111222,11111222,99999999' 
TABS,ioos:station:wmo:42049:1,2012-09-03T04:30:00Z,28.3507,-96.0058,2.0,73.74624796,10.71840007,-99999.0,'11111222,11111222,99999999' 
TABS,ioos:station:wmo:42049:1,2012-09-03T05:00:00Z,28.3507,-96.0058,2.0,78.96292832,10.70806238,-99999.0,'11111222,11111222,99999999' 
TABS,ioos:station:wmo:42049:1,2012-09-03T05:30:00Z,28.3507,-96.0058,2.0,58.88785625,9.928086422,-99999.0,'11133222,11111222,99999999' 
TABS,ioos:station:wmo:42049:1,2012-09-03T06:00:00Z,28.3507,-96.0058,2.0,61.84876769,7.270006878,-99999.0,'11133222,11111222,99999999' 
TABS,ioos:station:wmo:42049:1,2012-09-03T06:30:00Z,28.3507,-96.0058,2.0,59.06025889,8.207923002,-99999.0,'11133222,11111222,99999999' 
TABS,ioos:station:wmo:42049:1,2012-09-03T07:00:00Z,28.3507,-96.0058,2.0,58.99964275,8.038140332,-99999.0,'11133222,11111222,99999999' 
TABS,ioos:station:wmo:42049:1,2012-09-03T07:30:00Z,28.3507,-96.0058,2.0,68.74582296,7.972264421,-99999.0,'11133222,11111222,99999999' 
TABS,ioos:station:wmo:42049:1,2012-09-03T08:00:00Z,28.3507,-96.0058,2.0,57.77698338,11.15867824,-99999.0,'11111222,11111222,99999999' 
TABS,ioos:station:wmo:42049:1,2012-09-03T08:30:00Z,28.3507,-96.0058,2.0,51.25460357,11.48815477,-99999.0,'11111222,11111222,99999999' 
TABS,ioos:station:wmo:42049:1,2012-09-03T09:00:00Z,28.3507,-96.0058,2.0,63.73245484,13.78330875,-99999.0,'11111222,11111222,99999999' 
TABS,ioos:station:wmo:42049:1,2012-09-03T09:30:00Z,28.3507,-96.0058,2.0,65.35033279,12.44396239,-99999.0,'11111222,11111222,99999999' 
TABS,ioos:station:wmo:42049:1,2012-09-03T10:00:00Z,28.3507,-96.0058,2.0,58.1302675,10.30320824,-99999.0,'11111222,11111222,99999999' 
TABS,ioos:station:wmo:42049:1,2012-09-03T10:30:00Z,28.3507,-96.0058,2.0,62.4767502,11.23110413,-99999.0,'11111222,11111222,99999999' 
TABS,ioos:station:wmo:42049:1,2012-09-03T11:00:00Z,28.3507,-96.0058,2.0,63.04974344,13.96679634,-99999.0,'11111222,11111222,99999999' 
TABS,ioos:station:wmo:42049:1,2012-09-03T11:30:00Z,28.3507,-96.0058,2.0,55.86122948,13.80968501,-99999.0,'11111222,11111222,99999999' 
TABS,ioos:station:wmo:42049:1,2012-09-03T12:00:00Z,28.3507,-96.0058,2.0,72.37386883,8.289155566,-99999.0,'11133222,11111222,99999999' 
TABS,ioos:station:wmo:42049:1,2012-09-03T12:30:00Z,28.3507,-96.0058,2.0,69.00348117,10.04710904,-99999.0,'11111222,11111222,99999999' 
TABS,ioos:station:wmo:42049:1,2012-09-03T13:00:00Z,28.3507,-96.0058,2.0,78.21866485,10.7259545,-99999.0,'11111222,11111222,99999999' 
TABS,ioos:station:wmo:42049:1,2012-09-03T13:30:00Z,28.3507,-96.0058,2.0,59.56484394,12.45647221,-99999.0,'11111222,11111222,99999999' 
TABS,ioos:station:wmo:42049:1,2012-09-03T14:00:00Z,28.3507,-96.0058,2.0,66.98185631,10.84333897,-99999.0,'11111222,11111222,99999999' 
TABS,ioos:station:wmo:42049:1,2012-09-03T14:30:00Z,28.3507,-96.0058,2.0,76.64078269,7.184406726,-99999.0,'11133222,11111222,99999999' 
TABS,ioos:station:wmo:42049:1,2012-09-03T15:00:00Z,28.3507,-96.0058,2.0,63.67446703,11.77076463,-99999.0,'11111222,11111222,99999999' 
TABS,ioos:station:wmo:42049:1,2012-09-03T15:30:00Z,28.3507,-96.0058,2.0,62.16294183,11.8853944,-99999.0,'11111222,11111222,99999999' 
TABS,ioos:station:wmo:42049:1,2012-09-03T16:00:00Z,28.3507,-96.0058,2.0,56.62529177,11.0886248,-99999.0,'11111222,11111222,99999999' 
TABS,ioos:station:wmo:42049:1,2012-09-03T16:30:00Z,28.3507,-96.0058,2.0,56.80293882,13.86247092,-99999.0,'11111222,11111222,99999999' 
TABS,ioos:station:wmo:42049:1,2012-09-03T17:00:00Z,28.3507,-96.0058,2.0,47.85044609,16.77918949,-99999.0,'11111222,11111222,99999999' 
TABS,ioos:station:wmo:42049:1,2012-09-03T17:30:00Z,28.3507,-96.0058,2.0,46.95355359,19.49919486,-99999.0,'11111222,11111222,99999999' 
TABS,ioos:station:wmo:42049:1,2012-09-03T18:00:00Z,28.3507,-96.0058,2.0,45.47860719,16.08724029,-99999.0,'11111222,11111222,99999999' 
TABS,ioos:station:wmo:42049:1,2012-09-03T18:30:00Z,28.3507,-96.0058,2.0,49.44775161,16.50407525,-99999.0,'11111222,11111222,99999999' 
TABS,ioos:station:wmo:42049:1,2012-09-03T19:00:00Z,28.3507,-96.0058,2.0,43.66887096,19.17484029,-99999.0,'11111222,11111222,99999999' 
TABS,ioos:station:wmo:42049:1,2012-09-03T19:30:00Z,28.3507,-96.0058,2.0,57.05991144,13.77438565,-99999.0,'11111222,11111222,99999999' 
TABS,ioos:station:wmo:42049:1,2012-09-03T20:00:00Z,28.3507,-96.0058,2.0,46.87426706,19.67516455,-99999.0,'11111222,11111222,99999999' 
TABS,ioos:station:wmo:42049:1,2012-09-03T20:30:00Z,28.3507,-96.0058,2.0,54.49360189,21.3500445,-99999.0,'11111222,11111222,99999999' 
TABS,ioos:station:wmo:42049:1,2012-09-03T21:00:00Z,28.3507,-96.0058,2.0,52.47253967,22.12945774,-99999.0,'11111222,11111222,99999999' 
TABS,ioos:station:wmo:42049:1,2012-09-03T21:30:00Z,28.3507,-96.0058,2.0,59.42448461,18.47939664,-99999.0,'11111222,11111222,99999999' 
TABS,ioos:station:wmo:42049:1,2012-09-03T22:00:00Z,28.3507,-96.0058,2.0,54.28453693,21.3443318,-99999.0,'11111222,11111222,99999999' 
TABS,ioos:station:wmo:42049:1,2012-09-03T22:30:00Z,28.3507,-96.0058,2.0,55.64638481,18.67800846,-99999.0,'11111222,11111222,99999999' 
TABS,ioos:station:wmo:42049:1,2012-09-03T23:00:00Z,28.3507,-96.0058,2.0,57.44542608,11.05734597,-99999.0,'11111222,11111222,99999999' 
TABS,ioos:station:wmo:42049:1,2012-09-03T23:30:00Z,28.3507,-96.0058,2.0,47.06090042,8.455394728,-99999.0,'11133222,11111222,99999999' 
TABS,ioos:station:wmo:42049:1,2012-09-04T00:00:00Z,28.3507,-96.0058,2.0,57.75930727,8.772616485,-99999.0,'11133222,11111222,99999999' 
TABS,ioos:station:wmo:42049:1,2012-09-04T00:30:00Z,28.3507,-96.0058,2.0,50.25936049,10.18277958,-99999.0,'11111222,11111222,99999999' 
TABS,ioos:station:wmo:42049:1,2012-09-04T01:00:00Z,28.3507,-96.0058,2.0,61.3035914,10.10059899,-99999.0,'11111222,11111222,99999999' 
TABS,ioos:station:wmo:42049:1,2012-09-04T01:30:00Z,28.3507,-96.0058,2.0,61.4266758,7.401459316,-99999.0,'11133222,11111222,99999999' 
TABS,ioos:station:wmo:42049:1,2012-09-04T02:00:00Z,28.3507,-96.0058,2.0,56.07917559,16.52187943,-99999.0,'11111222,11111222,99999999' 
TABS,ioos:station:wmo:42049:1,2012-09-04T02:30:00Z,28.3507,-96.0058,2.0,61.19984172,16.62663526,-99999.0,'11111222,11111222,99999999' 
TABS,ioos:station:wmo:42049:1,2012-09-04T03:00:00Z,28.3507,-96.0058,2.0,60.59835748,14.91048289,-99999.0,'11111222,11111222,99999999' 
TABS,ioos:station:wmo:42049:1,2012-09-04T03:30:00Z,28.3507,-96.0058,2.0,55.62909006,13.30265011,-99999.0,'11111222,11111222,99999999' 
TABS,ioos:station:wmo:42049:1,2012-09-04T04:00:00Z,28.3507,-96.0058,2.0,42.02273981,7.215157656,-99999.0,'11133222,11111222,99999999' 
TABS,ioos:station:wmo:42049:1,2012-09-04T04:30:00Z,28.3507,-96.0058,2.0,48.02158332,9.79290049,-99999.0,'11133222,11111222,99999999' 
TABS,ioos:station:wmo:42049:1,2012-09-04T05:00:00Z,28.3507,-96.0058,2.0,46.28454575,7.886222163,-99999.0,'11133222,11111222,99999999' 
TABS,ioos:station:wmo:42049:1,2012-09-04T05:30:00Z,28.3507,-96.0058,2.0,49.92175601,10.22001957,-99999.0,'11111222,11111222,99999999' 
TABS,ioos:station:wmo:42049:1,2012-09-04T06:00:00Z,28.3507,-96.0058,2.0,50.29489157,9.501631439,-99999.0,'11133222,11111222,99999999' 
TABS,ioos:station:wmo:42049:1,2012-09-04T06:30:00Z,28.3507,-96.0058,2.0,45.4380252,11.10190074,-99999.0,'11111222,11111222,99999999' 
TABS,ioos:station:wmo:42049:1,2012-09-04T07:00:00Z,28.3507,-96.0058,2.0,32.61937725,9.498126131,-99999.0,'11133222,11111222,99999999' 
TABS,ioos:station:wmo:42049:1,2012-09-04T07:30:00Z,28.3507,-96.0058,2.0,57.04985091,8.806599798,-99999.0,'11133222,11111222,99999999' 
TABS,ioos:station:wmo:42049:1,2012-09-04T08:00:00Z,28.3507,-96.0058,2.0,50.33551604,9.885757432,-99999.0,'11133222,11111222,99999999' 
TABS,ioos:station:wmo:42049:1,2012-09-04T08:30:00Z,28.3507,-96.0058,2.0,47.27443351,11.93829552,-99999.0,'11111222,11111222,99999999' 
TABS,ioos:station:wmo:42049:1,2012-09-04T09:00:00Z,28.3507,-96.0058,2.0,53.19619735,12.15200806,-99999.0,'11111222,11111222,99999999' 
TABS,ioos:station:wmo:42049:1,2012-09-04T09:30:00Z,28.3507,-96.0058,2.0,44.41204741,9.645444521,-99999.0,'11133222,11111222,99999999' 
TABS,ioos:station:wmo:42049:1,2012-09-04T10:00:00Z,28.3507,-96.0058,2.0,44.81101138,8.570180862,-99999.0,'11133222,11111222,99999999' 
TABS,ioos:station:wmo:42049:1,2012-09-04T10:30:00Z,28.3507,-96.0058,2.0,56.07830219,7.543984358,-99999.0,'11133222,11111222,99999999' 
TABS,ioos:station:wmo:42049:1,2012-09-04T11:00:00Z,28.3507,-96.0058,2.0,53.81022365,6.740474761,-99999.0,'11133222,11111222,99999999' 
TABS,ioos:station:wmo:42049:1,2012-09-04T11:30:00Z,28.3507,-96.0058,2.0,66.84117882,11.36588756,-99999.0,'11111222,11111222,99999999' 
TABS,ioos:station:wmo:42049:1,2012-09-04T12:00:00Z,28.3507,-96.0058,2.0,69.2228201,14.85614351,-99999.0,'11111222,11111222,99999999' 
TABS,ioos:station:wmo:42049:1,2012-09-04T12:30:00Z,28.3507,-96.0058,2.0,66.83206804,17.20771048,-99999.0,'11111222,11111222,99999999' 
TABS,ioos:station:wmo:42049:1,2012-09-04T13:00:00Z,28.3507,-96.0058,2.0,72.85448917,14.75576159,-99999.0,'11111222,11111222,99999999' 
TABS,ioos:station:wmo:42049:1,2012-09-04T13:30:00Z,28.3507,-96.0058,2.0,71.44264409,16.27628029,-99999.0,'11111222,11111222,99999999' 
TABS,ioos:station:wmo:42049:1,2012-09-04T14:00:00Z,28.3507,-96.0058,2.0,70.48631468,15.95651904,-99999.0,'11111222,11111222,99999999' 
TABS,ioos:station:wmo:42049:1,2012-09-04T14:30:00Z,28.3507,-96.0058,2.0,76.3633341,15.65120443,-99999.0,'11111222,11111222,99999999' 
TABS,ioos:station:wmo:42049:1,2012-09-04T15:00:00Z,28.3507,-96.0058,2.0,71.67487929,14.85324544,-99999.0,'11111222,11111222,99999999' 
TABS,ioos:station:wmo:42049:1,2012-09-04T15:30:00Z,28.3507,-96.0058,2.0,75.81025927,14.48185416,-99999.0,'11111222,11111222,99999999' 
TABS,ioos:station:wmo:42049:1,2012-09-04T16:00:00Z,28.3507,-96.0058,2.0,73.91895571,17.40088503,-99999.0,'11111222,11111222,99999999' 